Location: Cats Head Campground
(36.9525°N, 119.2268°W)
Time: 07:35:49
(UTC+00:00)

Daily predictions for brighter satellites

Satellite Brightness Start Highest point End
(mag) Time Altitude Azimuth Time Altitude Azimuth Time Altitude Azimuth
Cosmos 1484 Rocket 4.4 12:03:15 10° NNE 12:06:45 33° E 12:10:11 10° SSE
Lacrosse 4 Rocket 3.9 12:14:59 11° N 12:14:59 11° N 12:15:13 10° N
Cosmos 1833 Rocket 2.5 12:17:49 59° WSW 12:18:42 69° WNW 12:24:21 10° NNE
Cosmos 44 Rocket 3.3 12:25:06 42° NW 12:26:52 83° WSW 12:32:03 10° SSE
Lacrosse 5 rocket 2.9 12:29:12 21° N 12:29:12 21° N 12:30:52 10° NNE
ATLAS 3B R/B 2.5 12:26:50 26° SW 12:30:45 78° WNW 12:37:24 10° NNE
Meteor 1-31 Rocket 3.6 12:27:28 10° NNE 12:31:19 51° E 12:35:08 10° S
Meteor 1-24 Rocket 4.0 12:28:08 10° S 12:33:38 68° E 12:39:23 10° NNE
ATLAS CENTAUR Rocket 4.1 12:36:29 12° SSW 12:36:29 12° SSW 12:37:37 10° S
METEOR-M 4.4 12:30:45 10° NNE 12:36:04 68° E 12:41:22 10° S
USA 290 2.1 12:37:59 83° ENE 12:37:59 83° ENE 12:41:10 10° NNE
ISS -1.8 12:39:29 19° N 12:39:29 19° N 12:41:06 10° NNE
Cosmos 2369 4.0 12:33:15 10° NNW 12:38:54 66° ENE 12:44:29 10° SSE
Cosmos 2228 3.4 12:34:43 10° N 12:39:04 67° E 12:43:25 10° SSE
Cosmos 2082 Rocket 2.0 12:34:35 10° SSW 12:40:11 82° WNW 12:45:50 10° NNE
ADEOS Rocket 2.9 12:37:15 10° S 12:42:31 45° W 12:47:47 10° NNW
Cosmos 1656 3.9 12:41:11 26° NW 12:44:03 48° WSW 12:49:29 10° S
Cosmos 1606 Rocket 3.7 12:42:23 10° N 12:46:53 78° E 12:51:20 10° S
ALOS 2.2 12:45:59 10° N 12:50:38 67° WNW 12:55:15 10° SSW
ERS-2 2.0 12:47:28 10° S 12:51:03 59° WSW 12:53:32 19° NNW
COSMO-SKYMED 1 3.8 12:47:17 10° SE 12:51:22 42° ENE 12:55:28 10° N
SAR-Lupe-4 4.1 12:48:17 10° SSE 12:51:48 60° ENE 12:55:20 10° N
H-2A R/B 3.9 12:49:49 10° SSW 12:51:13 17° SW 12:51:13 17° SW
NOSS 8 (A) 4.3 12:52:52 16° SSW 12:55:39 88° ESE 12:58:43 10° NNE
CZ-4B R/B 3.7 12:53:37 10° N 12:57:46 71° WNW 13:01:41 10° SSW
Cosmos 1092 Rocket 3.9 12:55:53 10° SSW 13:02:00 70° W 13:08:13 10° N
Meteor 2-5 Rocket 3.9 12:57:05 10° SSW 13:02:34 50° WNW 13:08:11 10° N
Cosmos 1400 Rocket 3.0 12:58:46 10° N 13:02:42 69° E 13:06:33 10° SSE
Cosmos 614 Rocket 4.3 12:57:39 10° S 13:02:46 68° ESE 13:07:51 10° NNE
COSMOS 2406 4.3 13:02:28 22° WNW 13:03:19 23° WNW 13:07:46 10° N
Cosmos 2251 Rocket 3.6 12:58:39 10° SSW 13:03:54 56° WNW 13:09:11 10° N
Cosmos 967 Rocket 4.5 12:58:04 10° NNW 13:04:23 85° ENE 13:10:38 10° SSE
Nadezhda 4 Rocket 4.4 13:01:31 10° SW 13:07:05 37° WNW 13:12:42 10° N
Cosmos 1697 Rocket 2.7 13:02:07 10° NNW 13:07:40 59° WSW 13:13:12 10° S
Cosmos 220 Rocket 3.9 13:03:16 10° NNW 13:07:41 68° WSW 13:12:02 10° S
SAR-Lupe-1 3.9 13:06:06 10° S 13:09:39 82° WSW 13:13:14 10° NNW
Okean 1-7 Rocket 3.6 13:08:51 10° S 13:13:24 86° W 13:17:56 10° N
CZ-2C R/B 3.9 13:11:55 10° NNW 13:14:34 16° WNW 13:14:34 16° WNW
deb Chang Zheng 4 4.0 13:11:08 10° N 13:15:03 37° WNW 13:18:59 10° SW
Cosmos 2084 3.7 13:12:24 11° SW 13:16:19 49° NW 13:20:35 10° NNE
FENGYUN 3A 4.1 13:12:53 10° N 13:17:55 39° WNW 13:22:55 10° SW
SL-14 R/B 4.2 13:15:35 10° SW 13:18:55 26° WNW 13:22:20 10° NNW
Cosmos 2058 Rocket 3.1 13:15:21 10° N 13:19:52 87° E 13:24:19 10° S
DELTA 2 R/B (1) 4.5 13:17:21 17° W 13:21:01 34° SSW 13:26:01 10° SSE
Cosmos 1300 3.0 13:19:15 10° NNW 13:22:52 42° W 13:26:28 10° SSW
Cosmos 1892 Rocket 3.9 13:20:40 10° SSW 13:24:45 41° W 13:28:54 10° N
H-2A R/B 4.1 13:20:49 10° NNE 13:24:55 41° E 13:28:51 10° S
Cosmos 1626 3.7 13:27:47 15° WNW 13:27:56 15° WNW 13:30:06 10° NW
SJ-12 4.1 13:24:30 10° N 13:28:28 46° WNW 13:32:22 10° SSW
Cosmos 1980 Rocket 2.1 13:24:36 10° NNW 13:30:11 74° WSW 13:35:46 10° SSE
Cosmos 1315 Rocket 3.9 13:29:36 10° N 13:33:38 51° E 13:37:39 10° SSE
CZ-4B R/B 2.9 13:31:43 10° SW 13:34:16 19° W 13:36:50 10° NW
Abrixas rocket 3.6 13:32:45 10° NW 13:35:14 26° NNE 13:37:42 10° E
Cosmos 2098 Rocket 4.0 13:28:48 10° S 13:35:15 77° E 13:40:27 10° N
CENTAUR R/B 4.4 13:33:19 10° NW 13:36:05 13° NNW 13:39:01 10° N
Cosmos 2292 Rocket 4.0 13:33:52 10° SSE 13:36:45 46° E 13:40:03 10° NNE
SKYMED 2 3.7 13:35:10 10° S 13:39:22 51° W 13:43:37 10° NNW
Cosmos 1484 Rocket 4.4 13:38:44 10° NW 13:40:49 14° WNW 13:42:53 10° W
Spot 2 4.3 13:38:24 10° NNE 13:43:01 86° WNW 13:47:54 10° SSW
OE (NEXTSAT) 4.4 13:40:43 10° WSW 13:44:10 64° NNW 13:47:38 10° NE
SJ-7 4.4 13:40:44 10° NNE 13:44:45 85° ESE 13:48:43 10° SSW
H-2A R/B 2.7 13:42:15 10° N 13:46:04 79° WNW 13:49:55 10° SSW
Aureole 3 4.2 13:42:03 10° NNW 13:46:19 46° W 13:51:41 10° SSW
Meteor 2-8 Rocket 4.5 13:40:27 10° NNW 13:46:34 66° W 13:52:37 10° S
Cosmos 407 Rocket 3.4 13:43:32 10° SSW 13:48:37 68° WNW 13:53:45 10° NNE
Cosmos 1626 Rocket 3.6 13:44:49 10° SSW 13:49:14 72° W 13:53:43 10° N
Envisat 3.5 13:44:16 10° NNE 13:49:20 67° ESE 13:54:22 10° S
PSLV R/B 4.3 13:45:25 10° S 13:49:24 44° W 13:53:27 10° NNW
